Weather in Kuzino

Russia / Vologda Oblast     60°44′06″N   46°22′26″E
temp.,
°C
wind,
m/s
gust,
m/s
humid.,
%
clouds,
%
prec.,
mm/h
press.,
hPa
HPBL,
m
20 april, tue
tue2000:00−1se22710 0.0 103511
03:00−1sse11760 0.0 103511
06:000s12690 0.0 103582
09:00+6se23430 0.0 1034867
12:00+9sse23350 0.0 10331378
15:00+10sse34350 0.0 10311427
18:00+8se25500 0.0 1029151
21:00+3sse267240 0.0 1029109
21 april, wed
wed2100:000se257981 0.0 1029114
03:00−1ese298161 0.0 1028186
06:00+2ese41365100 0.0 1025425
09:00+7se61444100 0.0 10221042
12:00+10se71540100 0.0 10191376
15:00+6se71760100 0.1 10181319
18:00+4sse71578100 0.0 10161132
21:00+3sse61488100 0.1 1014983
22 april, thu
thu2200:00+2sse61496100 0.1 1013709
03:00+2sse51295100 0.6 1013779
06:00+2sse41297100 1.1 1013558
09:00+2s41097100 2.2 1014503
12:00+4ssw4984100 0.3 1015902
15:00+7ssw4773100 0.4 10171057
18:00+6s4979100 0.1 1018496
21:00+5s31088100 0.1 1019348
23 april, fri
fri2300:00+3s299660 0.0 1019209
03:00+1s28965 0.0 1020170
06:00+3s28915 0.0 1021236
09:00+9s46695 0.0 1022637
12:00+12s46547 0.0 10221395
15:00+14s46467 0.0 10211681
18:00+12s375626 0.0 1022502
21:00+8sse412755 0.0 1022389
24 april, sat
sat2400:00+6se310835 0.0 1022261
03:00+5se3118393 0.0 1021285
06:00+6se41278100 0.0 1021478
09:00+9se496474 0.0 1020636
12:00+13se4549100 0.0 10181734
15:00+10ese4758100 0.0 1017833
18:00+9ese4864100 0.1 1016822
21:00+8ese3975100 0.2 1015560